Vertical_Velocity
-2 -4 -4 1 -0 5 -2 -0 -0 0 -2 -5 1 -1 1 5 35 4 -1 0 1 1 1 3 3 2 2 1 1 -2 -0 -1 -2 -5 -4 -1 -2 -1 -1 0 -1 -1 -2 -2 -0
-4 -3 -2 -3 -1 -5 -4 -3 1 -0 3 -3 0 -1 4 -7 11 31 -1 1 1 1 3 -1 -0 0 0 1 2 1 -0 0 -1 -1 -1 -0 -1 1 -3 -2 -2 -1 1 0 -0
-3 -2 -4 1 1 1 3 3 2 -3 -4 -0 4 2 3 1 17 -7 7 4 3 3 1 6 1 2 2 5 -0 1 1 0 -0 0 1 4 -0 -0 -2 -2 0 0 -1 1 2
-2 -1 -1 -2 -2 3 1 1 2 -1 -8 4 4 2 5 13 6 15 21 -3 2 -1 1 2 1 1 -1 1 1 -2 -2 1 -1 0 -0 1 0 -1 -1 -1 -2 -2 1 2 1
0 -3 0 -3 1 0 -2 -3 5 6 12 6 3 3 8 9 -3 10 32 5 2 5 3 4 3 -0 -0 -2 2 2 -1 -0 -1 -0 0 -0 0 1 -1 -1 -1 -2 1 -1 -1
1 0 2 -3 -5 4 3 9 17 10 11 7 2 -2 7 -14 -6 2 15 7 -0 6 -2 3 3 6 5 -3 3 -0 -2 -1 -1 0 0 -2 0 2 -1 -2 -1 0 -4 1 1
-1 -4 -1 -1 0 2 3 9 6 11 13 9 2 -9 -15 0 -21 7 6 3 3 2 3 3 6 3 4 3 0 1 0 1 3 -1 -2 1 -3 -2 0 -1 1 -0 -3 -1 0
-3 -5 1 -1 0 -0 3 1 2 2 2 -3 4 2 -4 3 32 2 11 3 5 4 5 3 2 4 3 -2 -1 0 5 1 1 1 -2 -1 0 -3 -2 1 1 -0 -2 -1 -0
-2 0 0 -3 -3 2 -1 -2 -3 1 5 -3 -2 -2 4 2 -12 -8 10 3 5 2 2 3 8 2 5 2 -0 3 -4 -2 2 0 -1 0 -2 -4 -2 0 2 1 0 -2 -0
-3 -5 -4 -1 -2 -2 -3 -1 -5 -10 2 13 4 12 8 -1 1 -5 1 5 3 1 1 2 3 -1 2 1 -11 -11 -4 -1 -0 -1 -1 -3 -1 -2 -4 -4 2 1 1 -1 -1
-2 -0 -4 -6 -5 -0 -2 -2 -6 -11 -12 -4 3 -8 5 15 -7 -14 -4 7 5 1 -1 3 -0 3 2 3 -0 2 -0 2 -0 -1 0 -1 -3 -1 -2 -3 -4 -1 -1 -1 1
1 -1 -4 -2 -6 -2 -2 4 2 -5 -10 -6 8 19 5 3 -3 1 3 4 1 -4 1 0 2 1 2 2 3 1 -1 0 1 -0 0 -1 -2 0 -5 -1 0 -2 -4 0 -1
-0 -1 -0 -6 -2 -4 -3 -6 4 4 -8 0 -7 -5 1 5 5 -5 -4 1 6 -2 1 -3 -1 1 2 -2 -1 -0 -1 -2 -2 -2 -3 -3 -9 -3 -3 -5 -2 -2 -0 -1 -0
-2 -2 1 -3 -4 -2 2 -6 -2 1 -0 4 -3 7 14 -1 -1 0 -2 -2 -5 2 0 2 1 2 1 0 -2 -2 -1 -3 -2 -3 -2 -0 -8 -3 -3 -2 -2 0 1 -1 -1
0 -1 -2 -1 1 -3 1 3 1 -2 -9 2 -3 2 6 -3 1 7 4 1 1 -3 -3 -1 -1 -0 0 0 -1 -3 -1 -1 -1 -1 -1 -0 -0 -10 -2 -2 3 1 -1 -2 -1
1 1 1 1 2 -1 -1 -1 -0 0 -3 -6 -2 4 -2 7 2 -5 -12 5 -0 -0 -1 -2 -0 -1 -0 -0 -0 -1 -2 -1 -0 -1 -1 -0 1 -8 -1 -1 0 1 -1 -1 -0
1 2 0 1 1 -2 -2 -2 -1 -12 0 -6 1 6 5 -4 1 5 3 -1 -3 -5 2 2 -0 -1 2 0 -0 -0 -0 -1 -5 -3 -4 -1 -0 -11 1 1 -0 -1 -1 -0 -1
-1 -1 4 0 2 -1 1 -1 -16 1 3 4 7 -0 -5 0 2 -2 5 -4 -0 -2 -6 -1 1 1 -0 1 -0 -0 -0 -2 -5 -2 -3 0 -6 -2 -0 -0 -0 1 0 -1 -3
2 -1 2 2 2 -3 -4 -17 -1 0 -5 -1 4 4 1 4 -5 -4 -0 -5 0 -0 -1 -4 0 0 -0 0 1 -2 -2 -1 -2 -1 -1 -0 -3 3 1 1 0 -1 -1 -2 -1
-2 2 -0 3 1 1 -1 -15 -6 -4 -5 -5 -2 -2 5 1 -2 -0 4 -1 -2 -0 -2 -1 -5 2 -0 -0 -0 -1 -1 -2 -1 -3 -1 -3 -3 -4 -2 -1 -1 -1 -0 0 0
-1 -3 0 1 1 -0 -9 -3 3 0 -3 -7 -3 -3 -1 -4 -5 -5 -2 -1 -2 -1 -1 -1 -1 -0 -1 -1 -0 -1 -2 -1 -1 -1 -3 -1 -4 -1 -2 -1 0 1 0 -1 -2
0 -5 -4 -1 -3 -6 1 -3 2 4 1 -4 1 2 -2 -3 -4 -0 -0 -1 -1 0 0 -0 -1 -1 -0 0 -0 -0 -1 -1 -2 -2 -0 -1 -12 0 0 -0 1 0 -1 -2 -1
-0 -1 -1 -3 -8 -4 -2 -0 -1 1 2 3 0 -1 1 2 3 -1 0 1 1 -1 -2 -2 -1 -2 0 -0 -1 -2 -2 0 -1 0 -3 -3 -5 1 1 2 -0 -1 -2 -3 -0
-1 -1 -1 -1 -1 -2 -4 -4 -3 -1 -1 0 0 0 0 -0 -1 -1 0 -0 1 1 1 1 -1 -1 -6 -1 -1 -2 -1 0 3 -1 -1 -13 -8 6 4 3 4 -2 0 -0 -0
-1 0 -1 -0 0 0 1 -3 -5 -3 -2 -1 -3 -1 -2 -2 -1 0 -1 -1 -1 -2 -3 -2 -2 -1 1 0 -1 1 2 1 -4 -0 -6 -4 -11 12 4 -0 3 -2 -2 -4 -0
-1 2 1 -1 -2 1 1 1 2 -1 -3 -3 -2 0 0 2 1 -1 0 -0 -1 -1 -0 -1 -2 -2 -1 2 1 -3 2 1 1 2 -7 2 -18 9 1 -2 -1 0 -1 -1 1
-0 -2 1 2 -0 -1 -0 2 2 3 1 1 1 -1 -1 -0 -0 1 -0 -1 -1 -1 -1 -1 -1 -1 -0 1 -1 -4 3 1 2 0 5 -5 6 2 4 1 0 2 2 -1 0
Height
3025 3020 3017 3014 3013 3013 3013 3014 3016 3022 3026 3030 3034 3039 3045 3051 3057 3060 3066 3072 3076 3081 3086 3091 3096 3102 3108 3114 3119 3124 3129 3131 3134 3139 3143 3146 3148 3152 3155 3158 3160 3162 3163 3165 3165
3025 3020 3017 3014 3012 3010 3009 3010 3012 3017 3022 3026 3030 3035 3040 3046 3053 3052 3062 3068 3074 3078 3083 3089 3093 3099 3105 3111 3117 3121 3126 3130 3135 3139 3142 3145 3148 3151 3155 3157 3158 3160 3161 3162 3163
3025 3020 3017 3014 3012 3010 3008 3007 3010 3012 3017 3022 3026 3030 3037 3042 3046 3049 3057 3063 3070 3075 3080 3086 3092 3098 3103 3108 3114 3119 3125 3130 3134 3137 3141 3144 3147 3149 3152 3154 3156 3158 3159 3160 3161
3024 3021 3017 3015 3013 3011 3009 3005 3006 3011 3015 3018 3024 3029 3034 3038 3042 3045 3048 3056 3065 3072 3078 3082 3088 3096 3101 3106 3112 3118 3123 3128 3132 3136 3140 3143 3146 3148 3150 3153 3154 3155 3156 3158 3158
3025 3022 3018 3015 3013 3012 3010 3007 3006 3011 3012 3017 3023 3027 3030 3035 3040 3041 3044 3053 3062 3069 3075 3081 3087 3094 3100 3106 3112 3116 3121 3127 3131 3135 3138 3141 3144 3146 3147 3149 3151 3153 3155 3156 3156
3027 3023 3020 3017 3014 3013 3012 3010 3009 3011 3014 3019 3024 3029 3030 3033 3036 3038 3041 3051 3061 3067 3073 3080 3085 3093 3099 3104 3112 3115 3121 3126 3130 3133 3136 3140 3142 3144 3146 3148 3149 3151 3152 3153 3153
3028 3025 3021 3018 3016 3014 3014 3013 3014 3015 3019 3022 3025 3030 3033 3035 3037 3039 3040 3051 3061 3068 3073 3080 3086 3092 3098 3104 3110 3114 3120 3125 3128 3132 3134 3138 3141 3142 3144 3146 3147 3148 3149 3150 3150
3030 3027 3023 3021 3017 3017 3017 3018 3018 3022 3022 3024 3027 3030 3033 3034 3037 3037 3042 3053 3061 3068 3075 3080 3086 3092 3097 3101 3109 3115 3120 3123 3127 3130 3133 3137 3139 3140 3142 3143 3145 3145 3146 3147 3148
3030 3028 3025 3024 3021 3020 3021 3022 3022 3025 3027 3028 3031 3032 3033 3035 3038 3040 3045 3055 3063 3069 3075 3081 3087 3091 3098 3101 3108 3112 3116 3121 3126 3128 3131 3134 3135 3136 3138 3140 3141 3142 3143 3144 3145
3032 3030 3028 3026 3026 3024 3025 3026 3026 3027 3029 3030 3033 3035 3037 3042 3043 3045 3050 3058 3065 3070 3077 3083 3087 3090 3097 3101 3103 3109 3115 3120 3123 3127 3128 3130 3132 3134 3136 3137 3137 3138 3139 3141 3141
3037 3033 3031 3030 3029 3029 3030 3030 3033 3034 3033 3030 3036 3036 3038 3041 3044 3050 3054 3062 3068 3074 3079 3084 3087 3092 3097 3102 3105 3110 3114 3118 3122 3124 3126 3127 3128 3131 3132 3133 3135 3136 3137 3137 3137
3042 3039 3037 3035 3035 3033 3033 3033 3035 3037 3038 3037 3036 3034 3035 3040 3045 3051 3058 3065 3071 3076 3082 3086 3089 3094 3099 3103 3106 3110 3114 3118 3121 3123 3125 3125 3125 3127 3127 3129 3131 3132 3132 3132 3131
3046 3045 3043 3041 3040 3039 3037 3037 3038 3040 3040 3044 3043 3045 3048 3051 3050 3057 3063 3067 3074 3079 3084 3087 3092 3096 3100 3103 3107 3110 3114 3118 3121 3122 3125 3124 3122 3123 3124 3124 3125 3126 3127 3126 3126
3051 3049 3047 3046 3046 3043 3043 3042 3042 3042 3045 3052 3050 3050 3051 3052 3055 3060 3067 3072 3075 3081 3086 3091 3095 3097 3101 3104 3109 3111 3114 3118 3121 3123 3124 3124 3121 3118 3119 3120 3120 3120 3120 3121 3121
3055 3053 3051 3049 3048 3047 3047 3044 3044 3045 3050 3056 3053 3054 3050 3054 3059 3065 3070 3074 3078 3082 3088 3093 3096 3100 3103 3106 3109 3112 3115 3118 3120 3121 3122 3121 3122 3113 3114 3115 3114 3114 3115 3116 3117
3057 3055 3053 3051 3050 3048 3047 3047 3046 3049 3057 3058 3056 3058 3059 3062 3064 3069 3074 3080 3083 3086 3089 3093 3098 3101 3104 3107 3110 3112 3115 3118 3119 3120 3120 3118 3120 3110 3110 3109 3109 3111 3112 3114 3114
3060 3056 3053 3051 3050 3048 3047 3048 3050 3052 3064 3066 3063 3062 3063 3067 3071 3076 3079 3082 3085 3089 3092 3096 3100 3103 3105 3108 3110 3112 3114 3117 3120 3121 3120 3117 3117 3107 3108 3107 3108 3109 3111 3111 3112
3065 3060 3057 3053 3051 3050 3049 3050 3051 3061 3059 3062 3061 3064 3068 3074 3077 3080 3082 3084 3087 3088 3093 3097 3105 3104 3105 3108 3109 3111 3113 3114 3121 3122 3118 3116 3109 3105 3104 3105 3107 3108 3109 3109 3109
3070 3067 3062 3059 3056 3055 3056 3053 3062 3065 3066 3066 3070 3074 3076 3076 3079 3082 3085 3087 3089 3091 3093 3097 3101 3104 3106 3107 3110 3110 3113 3116 3116 3118 3118 3110 3105 3103 3102 3103 3105 3107 3107 3107 3106
3076 3072 3069 3067 3064 3064 3062 3060 3067 3070 3072 3072 3070 3072 3075 3078 3082 3084 3085 3089 3090 3092 3094 3096 3100 3103 3105 3107 3109 3110 3113 3115 3115 3119 3118 3107 3104 3101 3101 3101 3104 3106 3106 3105 3104
3082 3078 3075 3074 3073 3072 3065 3068 3072 3074 3075 3076 3077 3078 3080 3081 3083 3085 3087 3090 3092 3094 3095 3096 3098 3105 3106 3106 3107 3110 3110 3112 3114 3116 3117 3116 3104 3102 3101 3101 3103 3103 3103 3102 3100
3085 3083 3081 3079 3079 3075 3074 3073 3075 3077 3078 3079 3080 3081 3083 3085 3087 3086 3088 3090 3092 3094 3095 3096 3098 3101 3104 3105 3106 3107 3108 3110 3112 3115 3114 3115 3104 3100 3100 3101 3102 3102 3101 3098 3097
3087 3086 3085 3084 3083 3081 3080 3080 3080 3080 3081 3082 3083 3084 3084 3085 3087 3087 3088 3090 3092 3094 3096 3097 3098 3101 3105 3107 3104 3104 3106 3108 3109 3110 3109 3112 3101 3100 3100 3101 3101 3100 3097 3094 3092
3090 3089 3088 3087 3085 3085 3084 3084 3084 3084 3084 3084 3085 3085 3085 3086 3087 3088 3089 3090 3091 3093 3095 3097 3097 3097 3099 3099 3100 3101 3101 3103 3105 3106 3104 3098 3097 3100 3100 3098 3096 3093 3091 3088 3086
3091 3091 3090 3089 3088 3087 3087 3086 3086 3086 3087 3087 3087 3087 3087 3087 3088 3089 3090 3091 3093 3094 3095 3096 3095 3096 3096 3096 3096 3096 3097 3098 3097 3099 3097 3093 3092 3094 3095 3092 3091 3088 3085 3082 3081
3092 3092 3091 3090 3089 3089 3089 3088 3089 3088 3088 3089 3089 3088 3089 3089 3089 3089 3090 3090 3091 3092 3093 3093 3094 3093 3092 3091 3091 3090 3091 3092 3091 3092 3090 3091 3087 3091 3090 3088 3086 3083 3080 3078 3075
3091 3091 3091 3090 3089 3089 3089 3089 3089 3088 3089 3088 3089 3089 3089 3089 3089 3089 3089 3090 3090 3091 3091 3092 3092 3091 3088 3088 3088 3087 3085 3086 3086 3087 3089 3087 3088 3086 3085 3084 3082 3080 3077 3073 3071